Location: Dumpton Point
(51.3500°N, 1.4433°E)
Time: 08:37:38
(UTC+00:00)

Vanguard 2 Rocket - Visible Passes

Search period start: 19 April 2021 00:00
Search period end: 29 April 2021 00:00
Orbit: 553 x 3326 km, 32.9° (Epoch: 18 April)

Date Brightness Start Highest point End Pass type
(mag) Time Alt. Az. Time Alt. Az. Time Alt. Az.
19 Apr 10.3 20:18:19 10° WSW 20:24:47 13° SW 20:30:18 10° SSW visible
22 Apr 10.5 19:28:30 10° WSW 19:37:16 16° SW 19:44:43 10° SSW visible
24 Apr 10.8 19:48:14 10° WSW 19:49:19 10° SW 19:50:22 10° SW visible
